www.pogodaiklimat.ru

Погода и климат >> Архив погоды >> ОАЭ >> Abu Dhabi


АРХИВ ПОГОДЫ в Abu Dhabi

Время (UTC), дата Ветер
(напр.,м/с)
 
Видим.   Явления Облачность Т
(С)
Тd
(С)
f
(%)
Тe
(С)
Тes
(С)
Комфортность P
(гПа)
Po
(гПа)
Тmin
(С)
Tmax
(С)
R
(мм)
R24
(мм)
S
(см)
00 9.12 Ю 2 10 км ясно +18.3 +13.2 72 +19 +19 тепло 1015.9 1013.0
03 9.12 Ю 2 10 км ясно +18.6 +13.5 72 +20 +20 по сезону 1016.6 1013.7
06 9.12 ЮЗ 3 10 км ясно +23.1 +15.0 60 +27 +32 душно 1018.1 1015.2 +18.0
09 9.12 СЗ 6 10 км 1/0
[Ac trans]
+27.2 +14.1 45 +29 +33 жарко 1016.5 1013.6
12 9.12 СЗ 6 10 км 1/0
[Ac trans]
+26.3 +13.6 45 +28 +29 жарко 1015.1 1012.2
15 9.12 СЗ 3 10 км ясно +24.7 +16.0 58 +28 +28 душно 1016.0 1013.1
18 9.12 З 3 10 км ясно +24.1 +16.0 61 +27 +27 жарко 1016.6 1013.7 +27.6
21 9.12 З 2 10 км ясно +22.9 +15.6 63 +27 +27 душно 1015.9 1013.0
00 10.12 ЮЗ 3 10 км ясно +20.4 +15.5 73 +24 +24 комфорт 1015.2 1012.3
03 10.12 ЮЗ 1 10 км ясно +19.9 +15.4 75 +23 +23 комфорт 1015.7 1012.8
06 10.12 З 2 9000 м пыль ясно +25.9 +16.6 56 +29 +36 душно 1017.1 1014.2 +19.8
09 10.12 СЗ 6 10 км ясно +27.4 +14.6 45 +30 +34 жарко 1014.4 1011.6
18 10.12 З 3 10 км ясно +24.2 +17.6 67 +28 +28 душно 1015.8 1012.9 +28.0
21 10.12 З 1 10 км ясно +22.3 +17.5 74 +27 +27 душно 1015.1 1012.2
00 11.12 З 3 10 км ясно +22.1 +17.7 76 +27 +27 душно 1015.5 1012.6
03 11.12 Ю 2 8000 м мгла ясно +20.6 +17.3 81 +25 +25 комфорт 1016.2 1013.3
06 11.12 З 2 10 км ясно +25.5 +18.8 66 +30 +36 душно 1018.2 1015.3 +20.5
09 11.12 СЗ 7 10 км ясно +27.3 +15.5 48 +30 +33 душно 1016.2 1013.3
15 11.12 СЗ 5 10 км ясно +24.4 +17.0 63 +28 +28 душно 1016.8 1013.9
18 11.12 З 4 10 км ясно +23.6 +17.7 70 +28 +28 душно 1017.4 1014.5 +27.8
00 12.12 З 3 10 км 4/4 750 м
[Sc]
+22.8 +18.2 75 +28 +28 душно 1017.5 1014.6
06 12.12 СЗ 6 10 км 1/1 900 м
[Sc]
+24.5 +16.4 61 +28 +30 душно 1020.2 1017.3 +21.9
09 12.12 СЗ 5 10 км ясно +25.3 +16.1 57 +29 +34 душно 1018.1 1015.2
12 12.12 С 4 10 км ясно +25.2 +15.7 56 +28 +30 жарко 1016.9 1014.0
18 12.12 СЗ 4 10 км ясно +22.3 +16.2 68 +26 +26 жарко 1019.3 1016.4 +26.5
21 12.12 З 3 10 км ясно +21.4 +15.8 70 +25 +25 комфорт 1018.9 1016.0
00 13.12 ЮВ 2 10 км ясно +18.2 +14.4 78 +19 +19 тепло 1018.5 1015.5
03 13.12 Ю 3 9000 м мгла ясно +16.5 +14.0 85 +16 +16 прохладно 1019.9 1016.9
06 13.12 Ю 3 10 км ясно +21.1 +15.9 72 +24 +30 комфорт 1021.8 1018.9 +15.6
09 13.12 СЗ 4 10 км 1/1 1050 м
[Sc]
+25.6 +14.3 50 +28 +34 жарко 1019.7 1016.8
12 13.12 З 5 10 км ясно +25.3 +15.8 56 +29 +30 душно 1018.5 1015.6
15 13.12 СЗ 4 10 км ясно +23.3 +15.7 62 +28 +28 душно 1019.8 1016.9
21 13.12 нст 1 10 км 3/3 900 м
[Sc]
+19.7 +15.6 77 +23 +23 комфорт 1019.9 1017.0
00 14.12 Ю 1 10 км ясно +17.1 +14.2 83 +18 +18 тепло 1019.7 1016.7
03 14.12 В 2 6000 м мгла 1/1 900 м
[Sc]
+15.9 +13.8 87 +16 +16 прохладно 1020.8 1017.8
06 14.12 нст 1 8000 м мгла ясно +22.0 +15.7 67 +26 +33 душно 1022.5 1019.6 +15.7
12 14.12 СЗ 5 10 км 1/1 1200 м
[Cu hum]
+24.8 +15.6 57 +28 +29 жарко 1018.9 1016.0
15 14.12 СЗ 4 10 км ясно +23.3 +17.2 69 +29 +29 душно 1020.3 1017.4
21 14.12 С 3 10 км ясно +21.1 +16.4 75 +25 +25 комфорт 1020.1 1017.2
03 15.12 СВ 2 7000 м мгла ясно +18.7 +15.2 80 +20 +20 тепло 1020.4 1017.4
06 15.12 В 3 8000 м пыль 3/3 1350 м
[Cu hum]
+21.9 +16.1 70 +26 +29 душно 1022.0 1019.1 +18.2
09 15.12 нст 2 10 км 1/1 1200 м
[Sc]
+26.4 +15.0 50 +29 +38 жарко 1019.4 1016.5
12 15.12 СЗ 7 10 км 3/3 900 м
[Cu hum]
+25.1 +17.7 64 +29 +30 душно 1018.4 1015.5
15 15.12 С 5 10 км ясно +23.5 +18.0 71 +28 +28 душно 1020.0 1017.1
18 15.12 С 3 10 км 3/3 750 м
[Sc]
+22.8 +18.4 76 +28 +28 душно 1021.1 1018.2 +27.6

 

Местоположение метеостанции Abu Dhabi (ОАЭ): широта 24.43 долгота 54.65 высота над уровнем моря 27 м.

В архиве по умолчанию представлена погода в Abu Dhabi за последнюю неделю. Архивные данные за месяц целиком и за предыдущие месяцы, начиная с января 2011 года, Вы можете получить, выбрав интересующий диапазон дат из раскрывающегося списка и нажав кнопку "Ввод!".


*Определитесь, кто Вы:
робот инопланетянин человек

Внимание! Время в таблицах - всемирное. Для получения местного времени необходимо прибавить поправку, которая в Abu Dhabi равна 4 ч.

Смотрите также архив погоды в соседних городах и на ближайших метеорологических станциях:

Погода в Abu Dhabi Bateen Airport (ОАЭ) (19 км)
Погода в Dubai Al Maktoum Int Airport (ОАЭ) (73 км)
Погода в Al Ain Int Airport (ОАЭ) (98 км)
Погода в Dubai (ОАЭ) (114 км)
Погода в Buraimi (Оман) (117 км)
Погода в Sharjah (ОАЭ) (133 км)
Погода в Abu Musa Island (Иран) (157 км)
Погода в Sirri Island (Иран) (165 км)
Погода в Qumayra (Оман) (167 км)
Погода в Ras Al Khaimah Int Airport (ОАЭ) (185 км)

Пояснения к столбцам:

Ветер - указаны скорость ветра в м/с - средняя за 10 мин, порывы в срок и между сроками (в фигурных скобках) и направление, откуда дует ветер: С - северный, СВ - северо-восточный, В - восточный, ЮВ - юго-восточный, Ю - южный, ЮЗ - юго-западный, З - западный, СЗ - северо-западный.
Видимость - горизонтальная дальность видимости в метрах или километрах. При видимости от 1 до 10 км при отсутствии осадков обычно наблюдается дымка, при ухудшении видимости до 1 км и менее - туман. В сухую погоду видимость может ухудшаться дымом, пылью или мглою.
Явления - указаны атмосферные явления, наблюдавшиеся в срок или в последний час перед сроком; фигурными скобками обозначены явления, наблюдавшиеся между сроками (за 1-3 часа до срока); квадратными скобками обозначены град или гололедные отложения с указанием их диаметра в мм.
Облачность - указаны через наклонную черту общая и нижняя облачность в баллах и высота нижней границы облаков в метрах; квадратными скобками обозначены формы облаков: Ci - перистые, Cs - перисто-слоистые, Cc - перисто-кучевые, Ac - высококучевые, As - высокослоистые, Sc - слоисто-кучевые, Ns - слоисто-дождевые, Cu - кучевые, Cb - кучево-дождевые. Подробнее классификацию облаков см. в Атласе облаков (PDF).
T - Температура воздуха - температура, измеренная на высоте 2 м над землей.
Td - Температура точки росы - температура, при понижении до которой содержащийся в воздухе водяной пар достигнет насыщения.
f - Относительная влажность воздуха - влажноcть воздуха, измеренная на высоте 2 м над землей.
Te - Эффективная температура - температура, которую ощущает одетый по сезону человек в тени. Характеристика душности погоды. При расчете учитывается влияние влажности воздуха и скорости ветра на теплоощущения человека.
Tes - Эффективная температура на солнце - температура, которую ощущает человек, с поправкой на солнечный нагрев. Характеристика знойности погоды. Зависит от высоты солнца над горизонтом, облачности и скорости ветра. Ночью, в пасмурную погоду, а также при ветре 12 м/с и более поправка равна нулю.
P - Атмосферное давление - приведенное к уровню моря атмосферное давление.
Po - Атмосферное давление - измеренное на уровне метеостанции атмосферное давление.
Tmin - Минимальная температура - минимум температуры воздуха на высоте 2 м над землей.
Tmax - Максимальная температура - максимум температуры воздуха на высоте 2 м над землей.
R - Количество осадков - Количество выпавших осадков за период времени, мм. При наведении курсора мыши на число - период времени, за который выпало указанное количество осадков.
R24 - Количество осадков - Количество выпавших осадков за 24 часа, мм.
S - Снежный покров - Высота снежного покрова, см. При наведении курсора мыши на число - состояние снежного покрова и степень покрытия местности в баллах.